TimeEST,TemperatureF,Dew PointF,Humidity,Sea Level PressureIn,VisibilityMPH,Wind Direction,Wind SpeedMPH,Gust SpeedMPH,PrecipitationIn,Events,Conditions,WindDirDegrees,DateUTC
12:51 AM,42.1,37.9,85,29.49,10.0,WSW,18.4,26.5,N/A,,Overcast,250,2012-12-27 05:51:00
1:22 AM,41.0,37.4,87,29.49,10.0,WSW,11.5,18.4,N/A,,Overcast,250,2012-12-27 06:22:00
1:51 AM,42.1,37.0,82,29.49,10.0,WSW,15.0,21.9,N/A,,Overcast,250,2012-12-27 06:51:00
2:18 AM,42.8,37.4,81,29.50,10.0,WSW,13.8,25.3,N/A,,Mostly Cloudy,240,2012-12-27 07:18:00
2:40 AM,42.8,37.4,81,29.52,10.0,WSW,15.0,28.8,N/A,,Scattered Clouds,250,2012-12-27 07:40:00
2:51 AM,42.1,37.0,82,29.52,10.0,WSW,13.8,23.0,N/A,,Partly Cloudy,250,2012-12-27 07:51:00
3:51 AM,42.1,37.0,82,29.55,10.0,WSW,13.8,21.9,N/A,,Scattered Clouds,250,2012-12-27 08:51:00
4:51 AM,42.1,36.0,79,29.57,10.0,WSW,10.4,19.6,N/A,,Mostly Cloudy,250,2012-12-27 09:51:00
5:51 AM,42.1,35.1,76,29.61,10.0,West,10.4,18.4,N/A,,Clear,260,2012-12-27 10:51:00
6:51 AM,42.1,34.0,73,29.65,10.0,WSW,8.1,16.1,N/A,,Clear,250,2012-12-27 11:51:00
7:51 AM,42.1,33.1,70,29.68,10.0,West,10.4,-,N/A,,Clear,260,2012-12-27 12:51:00
8:51 AM,43.0,33.1,68,29.72,10.0,West,9.2,18.4,N/A,,Clear,260,2012-12-27 13:51:00
9:51 AM,45.0,32.0,60,29.76,10.0,West,10.4,23.0,N/A,,Clear,280,2012-12-27 14:51:00
10:51 AM,46.0,30.0,54,29.78,10.0,WNW,12.7,24.2,N/A,,Mostly Cloudy,290,2012-12-27 15:51:00
11:51 AM,48.0,28.9,48,29.79,10.0,WNW,15.0,19.6,N/A,,Clear,290,2012-12-27 16:51:00
12:51 PM,48.2,26.6,43,29.79,10.0,WNW,11.5,24.2,N/A,,Partly Cloudy,290,2012-12-27 17:51:00
1:51 PM,48.9,27.0,43,29.80,10.0,NW,9.2,20.7,N/A,,Clear,310,2012-12-27 18:51:00
2:51 PM,48.9,27.0,43,29.83,10.0,WNW,12.7,21.9,N/A,,Clear,290,2012-12-27 19:51:00
3:51 PM,48.9,27.0,43,29.85,10.0,West,8.1,21.9,N/A,,Clear,280,2012-12-27 20:51:00
4:51 PM,48.0,27.0,44,29.87,10.0,WNW,6.9,17.3,N/A,,Clear,300,2012-12-27 21:51:00
5:51 PM,46.9,28.0,48,29.91,10.0,Variable,4.6,-,N/A,,Clear,0,2012-12-27 22:51:00
6:51 PM,45.0,28.9,53,29.94,10.0,West,5.8,-,N/A,,Clear,270,2012-12-27 23:51:00
7:51 PM,44.1,28.9,55,29.96,10.0,West,5.8,-,N/A,,Clear,270,2012-12-28 00:51:00
8:51 PM,43.0,28.9,58,29.97,10.0,WNW,8.1,-,N/A,,Clear,300,2012-12-28 01:51:00
9:51 PM,41.0,28.9,62,30.00,10.0,NNW,5.8,-,N/A,,Clear,330,2012-12-28 02:51:00
10:51 PM,39.9,26.1,58,30.02,10.0,NW,9.2,-,N/A,,Clear,320,2012-12-28 03:51:00
11:51 PM,39.0,25.0,57,30.04,10.0,Variable,3.5,-,N/A,,Clear,0,2012-12-28 04:51:00